DateTimeUTC,F1_A11,F1_S11,BsB_S11,BsG_S11,BsR_S11,BbsB_S11,BbsG_S11,BbsR_S11,BaB_A11,BaG_A11,BaR_A11,Tu_S11,T_S11,Uu_S11,U_S11,P_S11,T1_A11
2021-11-28T19:00:00Z,00000200,21000000,,,,,,,-000.39,0000.04,0000.17,18.2,25.0,,00.0,0631.2,30.8
2021-11-28T19:01:00Z,00000200,21000000,,,,,,,-000.01,0000.03,0000.23,18.2,25.0,,00.0,0631.2,30.8
2021-11-28T19:02:00Z,00000200,21000000,,,,,,,-000.04,0000.10,-000.22,18.1,25.0,,00.0,0631.2,30.8
2021-11-28T19:03:00Z,00000200,61000000,,,,,,,0000.49,0000.39,0000.29,18.1,25.0,,00.0,0631.2,30.8
2021-11-28T19:04:00Z,00000200,41000000,0000.59,-000.10,0000.04,-000.39,0000.29,0000.04,0000.27,0000.39,-000.04,18.4,24.9,,00.0,0632.0,30.8
2021-11-28T19:05:00Z,00000200,01000000,0000.63,0000.11,0000.02,0000.28,0000.17,0000.13,0000.29,0000.01,0000.54,18.5,24.8,,00.0,0632.0,30.8
2021-11-28T19:06:00Z,00000200,01000000,0000.71,0000.13,-000.15,-000.22,0000.09,0000.51,0000.63,0000.60,0000.43,18.5,24.8,,00.0,0632.0,30.8
2021-11-28T19:07:00Z,00000200,01000000,0001.22,0000.08,-000.06,0000.12,0000.22,-000.07,-000.04,0000.21,0000.41,18.5,24.8,,00.0,0632.0,30.8
2021-11-28T19:08:00Z,00000200,01000000,0000.80,0000.23,0000.32,-000.17,0000.06,0000.00,0000.25,0000.51,0000.15,18.5,24.8,,00.0,0632.0,30.8
2021-11-28T19:09:00Z,00000200,01000000,-000.18,-000.05,0000.15,0000.13,0000.28,0000.17,0000.48,0000.20,0000.33,18.5,24.8,,00.0,0632.1,30.8
2021-11-28T19:10:00Z,00000200,01000000,-000.30,0000.30,-000.18,-000.21,0000.06,0000.25,0000.40,0000.14,0000.38,18.5,24.8,,00.0,0632.0,30.8
2021-11-28T19:11:00Z,00000200,01000000,0001.09,0000.16,0000.35,0000.49,0000.07,0000.12,0000.35,0000.78,-000.16,18.6,24.8,,00.0,0632.0,30.8
2021-11-28T19:12:00Z,00000200,01000000,0001.30,0000.22,0000.37,0000.26,0000.06,0000.28,0000.51,-000.08,0000.63,18.6,24.8,,00.0,0632.0,30.8
2021-11-28T19:13:00Z,00000200,01000000,-000.05,0000.33,-000.18,-000.09,0000.23,-000.02,0000.40,0000.75,0000.40,18.6,24.9,,00.0,0632.1,30.8
2021-11-28T19:14:00Z,00000200,01000000,0000.57,0000.10,0000.36,-000.48,0000.04,0000.21,0000.30,0000.39,0000.59,18.6,24.9,,00.0,0632.0,30.8
2021-11-28T19:15:00Z,00000200,01000000,0000.30,0000.45,0000.02,-000.15,0000.06,-000.02,0000.47,0000.35,0000.30,18.6,24.8,,00.0,0632.1,30.8
2021-11-28T19:16:00Z,00000200,01000000,0000.63,0000.33,0000.09,-000.13,0000.22,0000.04,0000.14,0000.07,-000.19,18.6,24.9,,00.0,0632.1,30.8
2021-11-28T19:17:00Z,00000200,01000000,0000.64,0000.12,-000.10,0000.28,0000.25,-000.11,0000.44,0000.43,0000.43,18.6,24.9,,00.0,0632.1,30.8
2021-11-28T19:18:00Z,00000200,01000000,0000.61,0000.49,-000.28,0000.39,0000.22,-000.15,0000.12,0000.07,0000.17,18.6,24.9,,00.0,0632.2,30.8
2021-11-28T19:19:00Z,00000200,01000000,0000.25,0000.14,-000.28,0000.39,-000.21,0000.14,0000.16,0000.02,0000.09,18.7,24.9,,00.0,0632.3,30.8
2021-11-28T19:20:00Z,00000200,01000000,0000.25,-000.11,0000.05,0000.13,-000.15,0000.15,-000.02,0000.46,0000.18,18.7,24.9,,00.0,0632.3,30.8
2021-11-28T19:21:00Z,00000200,01000000,0000.71,0000.04,-000.15,0000.24,0000.30,-000.35,0000.54,-000.15,0000.25,18.7,24.9,,00.0,0632.4,30.8
2021-11-28T19:22:00Z,00000200,01000000,0000.41,0000.09,0000.08,0000.27,0000.27,0000.16,-000.30,-000.05,-000.21,18.7,24.9,,00.0,0632.4,30.8
2021-11-28T19:23:00Z,00000200,01000000,0000.36,0000.20,-000.01,-000.07,0000.09,-000.17,0000.29,0000.30,0000.36,18.7,24.9,,00.0,0632.5,30.8
2021-11-28T19:24:00Z,00000200,01000000,0000.24,0000.43,0000.14,-000.15,0000.36,-000.05,-000.03,0000.27,-000.19,18.7,24.9,,00.0,0632.5,30.8
2021-11-28T19:25:00Z,00000200,01000000,0000.22,0000.44,0000.38,0000.57,0000.01,0000.14,0000.18,-000.28,0000.15,18.7,24.9,,00.0,0632.5,30.8
2021-11-28T19:26:00Z,00000200,01000000,0000.57,0000.46,0000.02,-000.17,0000.43,0000.16,0000.14,0000.32,0000.34,18.7,24.9,,00.0,0632.5,30.8
2021-11-28T19:27:00Z,00000200,01000000,0000.41,0000.12,0000.07,-000.15,0000.40,0000.23,0000.11,0000.17,-000.25,18.7,24.9,,00.0,0632.5,30.8
2021-11-28T19:28:00Z,00000200,01000000,0000.45,0000.20,0000.12,0000.30,0000.04,0000.01,0000.24,-000.01,0000.13,18.7,24.9,,00.0,0632.5,30.8
2021-11-28T19:29:00Z,00000200,01000000,0000.69,0000.23,-000.17,-000.42,0000.42,-000.21,0000.22,0000.30,0000.07,18.7,24.9,,00.0,0632.5,30.8
2021-11-28T19:30:00Z,00000200,01000000,0001.30,0000.43,-000.28,0000.58,0000.39,-000.07,0000.24,-000.19,0000.55,18.7,24.9,,00.0,0632.6,30.8
2021-11-28T19:31:00Z,00000200,01000000,0000.56,0000.14,-000.00,-000.13,0000.23,-000.08,0000.14,0000.40,0000.11,18.7,24.9,,00.0,0632.6,30.8
2021-11-28T19:32:00Z,00000200,01000000,0000.59,0000.18,-000.12,0000.27,0000.06,0000.14,0000.18,0000.33,0000.09,18.7,24.9,,00.0,0632.7,30.8
2021-11-28T19:33:00Z,00000200,01000000,0000.95,0000.15,0000.16,-000.07,0000.07,0000.25,0000.17,-000.11,-000.20,18.7,24.9,,00.0,0632.7,30.8
2021-11-28T19:34:00Z,00000200,01000000,0000.07,0000.24,-000.31,0000.62,0000.16,0000.29,-000.05,0000.17,0000.14,18.7,24.9,,00.0,0632.7,30.8
2021-11-28T19:35:00Z,00000200,01000000,0000.40,0000.16,0000.20,-000.10,0000.11,0000.49,0000.32,0000.27,0000.29,18.7,24.9,,00.0,0632.7,30.8
2021-11-28T19:36:00Z,00000200,01000000,0001.25,0000.11,-000.05,0000.78,0000.23,-000.20,0000.04,0000.03,-000.03,18.7,24.9,,00.0,0632.7,30.8
2021-11-28T19:37:00Z,00000200,01000000,0001.08,0000.33,0000.21,-000.11,0000.29,0000.03,0000.30,0000.52,0000.28,18.7,24.9,,00.0,0632.7,30.8
2021-11-28T19:38:00Z,00000200,01000000,0000.43,0000.63,-000.27,-000.22,0000.09,0000.16,0000.30,0000.20,0000.18,18.7,24.9,,00.0,0632.7,30.8
2021-11-28T19:39:00Z,00000200,01000000,0001.39,0000.32,-000.18,-000.10,-000.03,0000.32,0000.01,0000.05,0000.37,18.6,24.9,,00.0,0632.7,30.8
2021-11-28T19:40:00Z,00000200,01000000,0000.67,0000.24,0000.17,-000.51,0000.27,-000.17,0000.32,0000.11,-000.15,18.7,24.9,,00.0,0632.7,30.8
2021-11-28T19:41:00Z,00000200,01000000,0001.32,0000.21,0000.02,0000.37,0000.31,0000.05,0000.17,0000.01,0000.20,18.6,24.9,,00.0,0632.8,30.8
2021-11-28T19:42:00Z,00000200,01000000,0000.36,0000.27,0000.07,0000.48,0000.43,0000.17,0000.27,0000.42,-000.09,18.7,24.9,,00.0,0632.8,30.8
2021-11-28T19:43:00Z,00000200,01000000,0000.05,0000.27,-000.17,-000.01,0000.30,0000.31,0000.20,0000.14,0000.57,18.7,24.9,,00.0,0632.8,30.8
2021-11-28T19:44:00Z,00000200,01000000,0001.14,0000.10,-000.16,0000.76,0000.25,-000.09,0000.00,0000.35,-000.24,18.7,24.9,,00.0,0632.8,30.8
2021-11-28T19:45:00Z,00000200,01000000,0000.97,0000.31,0000.26,0000.29,0000.22,0000.13,0000.19,-000.12,0000.46,18.7,24.9,,00.0,0632.8,30.8
2021-11-28T19:46:00Z,00000200,01000000,-000.11,0000.30,0000.13,0000.14,0000.35,0000.25,0000.51,0000.31,-000.18,18.7,24.9,,00.0,0632.8,30.8
2021-11-28T19:47:00Z,00000200,01000000,0001.44,0000.40,0000.48,-000.00,0000.20,0000.29,0000.13,0000.13,0000.30,18.7,24.9,,00.0,0632.8,30.8
2021-11-28T19:48:00Z,00000200,01000000,0000.43,0000.07,0000.09,0000.82,0000.24,0000.04,0000.28,0000.29,0000.03,18.7,24.9,,00.0,0632.8,30.8
2021-11-28T19:49:00Z,00000200,01000000,0000.77,0000.35,0000.40,0000.17,0000.49,0000.21,0000.25,-000.03,-000.13,18.7,24.9,,00.0,0632.9,30.8
2021-11-28T19:50:00Z,00000200,01000000,0000.68,0000.15,0000.06,0000.68,0000.27,0000.05,-000.20,0000.28,0000.59,18.7,24.9,,00.0,0632.9,30.8
2021-11-28T19:51:00Z,00000200,01000000,0000.78,0000.30,0000.16,0000.81,0000.25,0000.09,-000.15,-000.07,-000.09,18.7,24.9,,00.0,0632.9,30.8
2021-11-28T19:52:00Z,00000200,01000000,0001.05,0000.45,-000.13,0000.30,0000.24,0000.20,0000.28,-000.04,-000.01,18.7,24.9,,00.0,0632.9,30.8
2021-11-28T19:53:00Z,00000200,01000000,0001.01,0000.33,0000.21,-000.17,-000.07,0000.37,0000.22,0000.33,0000.14,18.6,24.9,,00.0,0632.9,30.8
2021-11-28T19:54:00Z,00000200,01000000,0001.02,0000.39,-000.21,0000.06,0000.00,-000.26,0000.02,-000.26,-000.36,18.6,24.8,,00.0,0632.9,30.8
2021-11-28T19:55:00Z,00000200,01000000,0000.85,0000.46,-000.07,0000.44,0000.20,-000.01,0000.12,0000.37,-000.17,18.7,24.8,,00.0,0633.0,30.8
2021-11-28T19:56:00Z,00000200,01000000,0001.18,0000.25,0000.25,-000.14,0000.05,0000.21,0000.24,-000.04,0000.21,18.7,24.8,,00.0,0633.0,30.8
2021-11-28T19:57:00Z,00000200,41000000,,,,,,,-000.74,-000.43,-000.30,18.7,24.9,,00.0,0633.1,30.8
2021-11-28T19:58:00Z,00000200,61000000,,,,,,,0000.17,-000.02,-000.14,18.3,25.0,,00.0,0632.2,30.8
2021-11-28T19:59:00Z,00000200,21000000,,,,,,,-000.06,-000.26,0000.20,18.3,25.1,,00.0,0632.2,30.8
